CAT,Max TemperatureF,Mean TemperatureF,Min TemperatureF,Max Dew PointF,MeanDew PointF,Min DewpointF,Max Humidity, Mean Humidity, Min Humidity, Max Sea Level PressureIn, Mean Sea Level PressureIn, Min Sea Level PressureIn, Max VisibilityMiles, Mean VisibilityMiles, Min VisibilityMiles, Max Wind SpeedMPH, Mean Wind SpeedMPH, Max Gust SpeedMPH,PrecipitationIn, CloudCover, Events, WindDirDegrees
2011-10-1,87,76,66,61,55,45,78,51,33,30.15,30.06,29.98,6,6,6,17,11,,0.00,2,Rain-Thunderstorm,88
2011-10-2,82,71,60,64,58,54,94,68,39,30.09,30.02,29.95,6,6,6,14,8,,0.00,5,Rain-Thunderstorm,83
2011-10-3,89,74,60,61,59,57,94,63,36,30.06,30.00,29.92,6,6,6,18,5,,0.00,2,,304
2011-10-4,84,72,60,61,59,57,88,67,42,30.12,30.05,29.98,6,6,6,14,7,,0.00,3,,136
2011-10-5,86,70,53,59,54,50,100,60,29,30.27,30.10,30.04,6,6,6,25,8,,0.00,4,,121
2011-10-6,68,62,55,54,49,46,82,65,49,30.42,30.37,30.30,6,6,6,26,18,,0.00,6,,113
2011-10-7,82,65,48,48,42,36,87,44,19,30.39,30.30,29.98,,,,16,8,,0.00,,,116
2011-10-8,84,68,53,41,39,36,58,34,18,30.33,30.25,30.15,,,,15,8,,0.00,,,120
2011-10-9,84,68,53,46,44,41,77,39,23,30.30,30.23,30.15,,,,18,10,,0.00,,,113
2011-10-10,86,72,57,50,46,41,63,40,22,30.30,30.21,30.12,,,,17,11,,0.00,,,120
2011-10-11,86,72,57,54,48,39,72,44,23,30.24,30.13,30.06,,,,14,10,,0.00,,,121
2011-10-12,89,70,50,55,46,39,87,42,19,30.12,30.05,29.98,6,6,6,12,6,,0.00,1,,102
2011-10-13,91,76,62,48,45,43,59,34,20,30.09,30.03,29.95,6,6,6,14,6,,0.00,1,,114
2011-10-14,89,76,62,48,45,37,48,33,19,30.12,30.05,29.95,,,,14,8,,0.00,,,119
2011-10-15,95,78,62,52,48,43,63,36,16,30.06,30.01,29.92,6,6,6,13,6,,0.00,1,,100
2011-10-16,98,81,64,57,51,45,50,34,21,30.01,29.94,29.86,6,6,6,12,6,,0.00,2,,96
2011-10-17,91,80,68,64,61,52,78,59,36,30.01,29.93,29.86,6,6,6,15,11,,0.00,2,,116
2011-10-18,98,81,64,63,60,57,83,54,25,29.98,29.88,29.77,6,6,6,16,9,,0.00,2,Thunderstorm,72
2011-10-19,86,77,68,70,62,46,88,62,40,30.04,29.91,29.80,6,6,6,15,9,,0.00,4,Rain-Thunderstorm,21
2011-10-20,87,78,68,64,51,41,78,43,25,30.04,29.99,29.92,6,6,6,17,8,,0.00,5,Rain-Thunderstorm,179
2011-10-21,84,72,60,61,55,43,78,57,42,30.12,30.04,29.98,6,6,6,16,9,,0.00,4,,129
2011-10-22,95,80,64,64,58,52,83,51,26,30.15,29.99,29.89,6,6,6,10,7,,0.00,2,,114
2011-10-23,102,83,64,59,53,50,64,36,20,30.04,29.95,29.86,6,6,6,12,6,,0.00,1,,103
2011-10-24,105,86,66,55,52,48,56,29,18,29.95,29.90,29.80,6,6,6,12,6,,0.00,1,,92
2011-10-25,105,89,73,57,53,48,47,29,17,29.89,29.78,29.68,6,6,6,17,8,,0.00,2,Thunderstorm,352
2011-10-26,102,91,80,66,58,50,51,35,20,29.83,29.77,29.68,6,6,6,23,7,,0.00,4,Thunderstorm,26
2011-10-27,95,84,73,68,63,57,78,50,31,29.98,29.90,29.83,6,6,6,10,5,,0.00,3,Rain-Thunderstorm,107
2011-10-28,96,82,68,68,61,55,88,51,30,30.04,29.96,29.86,6,6,6,20,9,,0.00,3,Thunderstorm,85
2011-10-29,95,84,73,66,62,57,73,54,32,30.04,29.97,29.89,6,6,6,16,10,,0.00,4,Thunderstorm,110
2011-10-30,100,84,68,64,58,52,83,47,21,30.01,29.93,29.83,6,6,6,17,7,,0.00,2,,44
2011-10-31,102,88,73,59,53,48,53,32,16,29.95,29.87,29.80,6,6,6,15,6,,0.00,3,,319